N139H LGIR-LGKF

Flight info

Callsign N139H
Flight time 2h 33m
Altitude 10000
Route BAVE1D BAVES J65 TRL A14 ARA
Aircraft A139/L-SDG/C

Departure

Time 2026-04-21 08:47
Airport Heraklion International Nikos Kazantzakis Airport (LGIR)

Arrival

Time 2026-04-21 11:20
Airport Kefallinia Airport (LGKF)
Time Latitude Longitude Altitude Speed Heading
2026-04-21 08:32 35.33683 25.18853 84 ft 0 kts 301°
2026-04-21 08:42 35.33694 25.18837 86 ft 2 kts 337°
2026-04-21 08:43 35.33711 25.18844 85 ft 4 kts 30°
2026-04-21 08:43 35.33743 25.18862 82 ft 4 kts
2026-04-21 08:43 35.33770 25.18843 82 ft 6 kts 296°
2026-04-21 08:43 35.33788 25.18783 84 ft 6 kts 292°
2026-04-21 08:44 35.33815 25.18760 84 ft 3 kts 315°
2026-04-21 08:44 35.33823 25.18732 85 ft 3 kts 284°
2026-04-21 08:44 35.33829 25.18679 87 ft 9 kts 278°
2026-04-21 08:44 35.33835 25.18603 89 ft 8 kts 275°
2026-04-21 08:45 35.33839 25.18542 92 ft 6 kts 276°
2026-04-21 08:45 35.33845 25.18457 93 ft 8 kts 285°
2026-04-21 08:45 35.33875 25.18419 92 ft 5 kts 347°
2026-04-21 08:45 35.33917 25.18421 89 ft 7 kts
2026-04-21 08:46 35.33944 25.18400 87 ft 2 kts 288°
2026-04-21 08:46 35.33946 25.18394 87 ft 0 kts 279°
2026-04-21 08:46 35.33944 25.18391 92 ft 1 kts 279°
2026-04-21 08:46 35.33950 25.18253 183 ft 39 kts 282°
2026-04-21 08:47 35.34015 25.17742 524 ft 75 kts 276°
2026-04-21 08:47 35.34125 25.17066 951 ft 90 kts 275°
2026-04-21 08:47 35.34493 25.16496 1358 ft 80 kts 304°
2026-04-21 08:47 35.34851 25.16019 1580 ft 74 kts 309°
2026-04-21 08:48 35.35121 25.15447 1776 ft 79 kts 306°
2026-04-21 08:48 35.35406 25.14829 1973 ft 89 kts 306°
2026-04-21 08:48 35.35895 25.14324 2227 ft 95 kts 336°
2026-04-21 08:48 35.36453 25.13867 2459 ft 100 kts 328°
2026-04-21 08:49 35.36992 25.13293 2710 ft 103 kts 322°
2026-04-21 08:49 35.37506 25.12640 2911 ft 111 kts 319°
2026-04-21 08:49 35.38023 25.11911 3158 ft 115 kts 316°
2026-04-21 08:49 35.38534 25.11145 3416 ft 116 kts 314°
2026-04-21 08:50 35.39039 25.10355 3663 ft 116 kts 313°
2026-04-21 08:50 35.39527 25.09575 3943 ft 112 kts 313°
2026-04-21 08:50 35.39988 25.08830 4186 ft 109 kts 313°
2026-04-21 08:50 35.40443 25.08093 4407 ft 109 kts 313°
2026-04-21 08:51 35.40901 25.07345 4643 ft 110 kts 312°
2026-04-21 08:51 35.41027 25.06397 4818 ft 121 kts 264°
2026-04-21 08:51 35.40569 25.05528 5123 ft 121 kts 240°
2026-04-21 08:51 35.40042 25.04712 5322 ft 125 kts 240°
2026-04-21 08:52 35.39495 25.03851 5531 ft 131 kts 242°
2026-04-21 08:52 35.38938 25.02955 5797 ft 132 kts 242°
2026-04-21 08:52 35.38381 25.02061 6046 ft 132 kts 242°
2026-04-21 08:52 35.37822 25.01163 6289 ft 132 kts 242°
2026-04-21 08:53 35.37430 25.00186 6544 ft 127 kts 270°
2026-04-21 08:53 35.37523 24.99118 6748 ft 129 kts 289°
2026-04-21 08:53 35.37700 24.98051 7011 ft 128 kts 290°
2026-04-21 08:53 35.37890 24.96984 7265 ft 127 kts 291°
2026-04-21 08:54 35.38084 24.95930 7496 ft 127 kts 292°
2026-04-21 08:54 35.38283 24.94879 7672 ft 130 kts 291°
2026-04-21 08:54 35.38495 24.93756 7768 ft 136 kts 291°
2026-04-21 08:54 35.38712 24.92615 7909 ft 138 kts 290°
2026-04-21 08:55 35.38927 24.91473 8054 ft 138 kts 290°
2026-04-21 08:55 35.39142 24.90335 8181 ft 137 kts 290°
2026-04-21 08:55 35.39357 24.89195 8292 ft 138 kts 290°
2026-04-21 08:55 35.39574 24.88045 8408 ft 139 kts 290°
2026-04-21 08:56 35.39792 24.86888 8533 ft 139 kts 290°
2026-04-21 08:56 35.40010 24.85736 8666 ft 139 kts 290°
2026-04-21 08:56 35.40230 24.84574 8785 ft 140 kts 290°
2026-04-21 08:56 35.40447 24.83416 8918 ft 138 kts 291°
2026-04-21 08:57 35.40665 24.82265 9029 ft 138 kts 291°
2026-04-21 08:57 35.40879 24.81125 9151 ft 138 kts 291°
2026-04-21 08:57 35.41097 24.79972 9277 ft 138 kts 291°
2026-04-21 08:57 35.41313 24.78830 9396 ft 138 kts 291°
2026-04-21 08:58 35.41529 24.77685 9519 ft 138 kts 291°
2026-04-21 08:58 35.41745 24.76538 9643 ft 138 kts 290°
2026-04-21 08:58 35.41960 24.75396 9757 ft 139 kts 291°
2026-04-21 08:58 35.42178 24.74234 9878 ft 139 kts 291°
2026-04-21 08:59 35.42395 24.73081 9992 ft 139 kts 291°
2026-04-21 08:59 35.42606 24.71924 10043 ft 139 kts 290°
2026-04-21 08:59 35.42818 24.70760 10051 ft 139 kts 290°
2026-04-21 08:59 35.43027 24.69612 10034 ft 139 kts 290°
2026-04-21 09:00 35.43236 24.68457 10029 ft 139 kts 289°
2026-04-21 09:00 35.43449 24.67284 10020 ft 139 kts 289°
2026-04-21 09:00 35.43656 24.66132 10017 ft 139 kts 288°
2026-04-21 09:00 35.43864 24.64982 10019 ft 138 kts 288°
2026-04-21 09:01 35.44075 24.63813 10006 ft 139 kts 288°
2026-04-21 09:01 35.44282 24.62655 10009 ft 138 kts 287°
2026-04-21 09:01 35.44488 24.61513 10002 ft 138 kts 287°
2026-04-21 09:01 35.44695 24.60360 10000 ft 138 kts 287°
2026-04-21 09:02 35.44902 24.59210 10003 ft 137 kts 286°
2026-04-21 09:02 35.45109 24.58054 10000 ft 138 kts 285°
2026-04-21 09:02 35.45314 24.56908 10000 ft 138 kts 285°
2026-04-21 09:03 35.45725 24.54609 10004 ft 137 kts 285°
2026-04-21 09:03 35.45929 24.53471 10000 ft 137 kts 285°
2026-04-21 09:03 35.46135 24.52319 10009 ft 137 kts 285°
2026-04-21 09:03 35.46338 24.51178 10025 ft 137 kts 285°
2026-04-21 09:04 35.46541 24.50036 10021 ft 137 kts 285°
2026-04-21 09:04 35.46745 24.48897 10022 ft 137 kts 285°
2026-04-21 09:04 35.46949 24.47754 10019 ft 137 kts 285°
2026-04-21 09:04 35.47154 24.46603 10013 ft 137 kts 285°
2026-04-21 09:05 35.47358 24.45459 10012 ft 137 kts 285°
2026-04-21 09:05 35.47560 24.44324 10011 ft 137 kts 285°
2026-04-21 09:05 35.47764 24.43177 10018 ft 137 kts 285°
2026-04-21 09:05 35.47969 24.42026 10018 ft 137 kts 285°
2026-04-21 09:06 35.48171 24.40889 10010 ft 137 kts 285°
2026-04-21 09:06 35.48376 24.39732 10004 ft 137 kts 285°
2026-04-21 09:06 35.48579 24.38590 9999 ft 137 kts 285°
2026-04-21 09:06 35.48783 24.37443 9995 ft 138 kts 285°
2026-04-21 09:07 35.48986 24.36297 10002 ft 137 kts 285°
2026-04-21 09:07 35.49187 24.35158 9991 ft 137 kts 285°
2026-04-21 09:07 35.49390 24.34013 9993 ft 137 kts 285°
2026-04-21 09:07 35.49596 24.32856 10016 ft 138 kts 285°
2026-04-21 09:08 35.49796 24.31721 10030 ft 137 kts 285°
2026-04-21 09:08 35.50000 24.30571 10005 ft 137 kts 285°
2026-04-21 09:08 35.50203 24.29427 9998 ft 137 kts 285°
2026-04-21 09:08 35.50406 24.28282 9997 ft 138 kts 285°
2026-04-21 09:09 35.50610 24.27126 10005 ft 138 kts 285°
2026-04-21 09:09 35.50813 24.25980 10004 ft 138 kts 285°
2026-04-21 09:09 35.51018 24.24816 10012 ft 138 kts 285°
2026-04-21 09:09 35.51222 24.23658 10016 ft 138 kts 285°
2026-04-21 09:10 35.51425 24.22511 10021 ft 138 kts 285°
2026-04-21 09:10 35.51627 24.21366 10021 ft 138 kts 285°
2026-04-21 09:10 35.51830 24.20205 10027 ft 137 kts 285°
2026-04-21 09:10 35.52031 24.19063 10019 ft 137 kts 285°
2026-04-21 09:11 35.52255 24.17912 10007 ft 137 kts 295°
2026-04-21 09:11 35.52890 24.17079 10007 ft 135 kts 320°
2026-04-21 09:11 35.53627 24.16349 10023 ft 135 kts 320°
2026-04-21 09:11 35.54362 24.15627 10032 ft 135 kts 320°
2026-04-21 09:12 35.55099 24.14911 10022 ft 135 kts 321°
2026-04-21 09:12 35.55850 24.14187 10021 ft 135 kts 321°
2026-04-21 09:12 35.56594 24.13473 10016 ft 135 kts 321°
2026-04-21 09:12 35.57336 24.12762 10015 ft 136 kts 321°
2026-04-21 09:13 35.58096 24.12037 10014 ft 136 kts 321°
2026-04-21 09:13 35.58850 24.11319 10010 ft 136 kts 321°
2026-04-21 09:13 35.59605 24.10601 10019 ft 136 kts 321°
2026-04-21 09:13 35.60356 24.09889 10018 ft 136 kts 321°
2026-04-21 09:14 35.61111 24.09172 10028 ft 135 kts 321°
2026-04-21 09:14 35.61862 24.08458 10019 ft 136 kts 321°
2026-04-21 09:14 35.62602 24.07757 10043 ft 135 kts 321°
2026-04-21 09:14 35.63349 24.07046 10023 ft 135 kts 321°
2026-04-21 09:15 35.64095 24.06339 10029 ft 135 kts 321°
2026-04-21 09:15 35.64839 24.05633 10019 ft 135 kts 321°
2026-04-21 09:15 35.65590 24.04920 10011 ft 135 kts 321°
2026-04-21 09:15 35.66345 24.04202 9986 ft 135 kts 321°
2026-04-21 09:16 35.67090 24.03495 10010 ft 135 kts 321°
2026-04-21 09:16 35.67842 24.02781 10017 ft 135 kts 321°
2026-04-21 09:16 35.68588 24.02071 10036 ft 135 kts 321°
2026-04-21 09:16 35.69331 24.01365 10048 ft 135 kts 321°
2026-04-21 09:17 35.70087 24.00644 10055 ft 136 kts 321°
2026-04-21 09:17 35.70832 23.99935 10056 ft 136 kts 321°
2026-04-21 09:17 35.71589 23.99216 10024 ft 136 kts 322°
2026-04-21 09:17 35.72342 23.98501 9998 ft 136 kts 321°
2026-04-21 09:18 35.73096 23.97784 9995 ft 136 kts 321°
2026-04-21 09:18 35.73837 23.97079 9998 ft 136 kts 321°
2026-04-21 09:18 35.74598 23.96355 9984 ft 136 kts 321°
2026-04-21 09:18 35.75343 23.95645 9977 ft 136 kts 321°
2026-04-21 09:19 35.76091 23.94932 9983 ft 136 kts 321°
2026-04-21 09:19 35.76849 23.94210 10005 ft 136 kts 321°
2026-04-21 09:19 35.77603 23.93492 10019 ft 136 kts 321°
2026-04-21 09:19 35.78353 23.92778 10020 ft 136 kts 321°
2026-04-21 09:20 35.79100 23.92065 10016 ft 136 kts 321°
2026-04-21 09:20 35.79852 23.91348 10002 ft 136 kts 321°
2026-04-21 09:20 35.80601 23.90632 10007 ft 136 kts 321°
2026-04-21 09:20 35.81349 23.89918 10011 ft 136 kts 321°
2026-04-21 09:21 35.82100 23.89199 10002 ft 136 kts 321°
2026-04-21 09:21 35.82855 23.88478 10000 ft 136 kts 321°
2026-04-21 09:21 35.83605 23.87762 10000 ft 136 kts 322°
2026-04-21 09:21 35.84360 23.87042 9999 ft 136 kts 321°
2026-04-21 09:22 35.85117 23.86320 9992 ft 136 kts 321°
2026-04-21 09:22 35.85870 23.85601 9992 ft 136 kts 321°
2026-04-21 09:22 35.86621 23.84884 9996 ft 136 kts 321°
2026-04-21 09:22 35.87369 23.84169 9992 ft 136 kts 321°
2026-04-21 09:23 35.88119 23.83451 9991 ft 136 kts 321°
2026-04-21 09:23 35.88873 23.82730 9992 ft 136 kts 321°
2026-04-21 09:23 35.89624 23.82012 9991 ft 137 kts 321°
2026-04-21 09:23 35.90380 23.81287 9997 ft 136 kts 321°
2026-04-21 09:24 35.91130 23.80568 9997 ft 136 kts 321°
2026-04-21 09:24 35.91888 23.79842 9994 ft 136 kts 321°
2026-04-21 09:24 35.92643 23.79119 9993 ft 136 kts 321°
2026-04-21 09:24 35.93391 23.78403 9995 ft 135 kts 321°
2026-04-21 09:25 35.94143 23.77683 9986 ft 136 kts 321°
2026-04-21 09:25 35.94893 23.76965 9990 ft 136 kts 321°
2026-04-21 09:25 35.95643 23.76246 9991 ft 136 kts 321°
2026-04-21 09:25 35.96387 23.75532 9989 ft 136 kts 321°
2026-04-21 09:26 35.97136 23.74814 9989 ft 137 kts 321°
2026-04-21 09:26 35.97901 23.74080 9995 ft 137 kts 321°
2026-04-21 09:26 35.98660 23.73352 9994 ft 137 kts 321°
2026-04-21 09:26 35.99424 23.72618 9998 ft 136 kts 321°
2026-04-21 09:27 36.00178 23.71892 9997 ft 136 kts 321°
2026-04-21 09:27 36.00935 23.71165 9999 ft 136 kts 321°
2026-04-21 09:27 36.01683 23.70447 9994 ft 135 kts 321°
2026-04-21 09:27 36.02431 23.69729 9991 ft 136 kts 321°
2026-04-21 09:28 36.03191 23.68999 9990 ft 136 kts 321°
2026-04-21 09:28 36.03941 23.68278 9993 ft 136 kts 321°
2026-04-21 09:28 36.04689 23.67559 9994 ft 136 kts 321°
2026-04-21 09:28 36.05449 23.66828 9998 ft 136 kts 321°
2026-04-21 09:29 36.06200 23.66106 9999 ft 136 kts 321°
2026-04-21 09:29 36.06950 23.65383 9995 ft 136 kts 321°
2026-04-21 09:29 36.07703 23.64658 9990 ft 136 kts 321°
2026-04-21 09:29 36.08450 23.63939 9990 ft 136 kts 321°
2026-04-21 09:30 36.09195 23.63221 9989 ft 136 kts 321°
2026-04-21 09:30 36.09942 23.62502 9980 ft 136 kts 321°
2026-04-21 09:30 36.10696 23.61774 9991 ft 136 kts 321°
2026-04-21 09:30 36.11448 23.61047 9999 ft 136 kts 321°
2026-04-21 09:31 36.12189 23.60330 10002 ft 136 kts 321°
2026-04-21 09:31 36.12946 23.59599 9998 ft 136 kts 321°
2026-04-21 09:31 36.13696 23.58873 10001 ft 136 kts 321°
2026-04-21 09:31 36.14441 23.58154 9984 ft 136 kts 321°
2026-04-21 09:32 36.15194 23.57427 9973 ft 136 kts 321°
2026-04-21 09:32 36.15945 23.56701 9978 ft 136 kts 321°
2026-04-21 09:32 36.16697 23.55975 9984 ft 136 kts 321°
2026-04-21 09:32 36.17450 23.55248 9987 ft 136 kts 321°
2026-04-21 09:33 36.18196 23.54526 9997 ft 136 kts 321°
2026-04-21 09:33 36.18941 23.53806 9992 ft 136 kts 321°
2026-04-21 09:33 36.19693 23.53080 9989 ft 136 kts 321°
2026-04-21 09:33 36.20443 23.52354 9993 ft 136 kts 321°
2026-04-21 09:34 36.21196 23.51627 9994 ft 136 kts 321°
2026-04-21 09:34 36.21951 23.50897 10002 ft 137 kts 321°
2026-04-21 09:34 36.22702 23.50170 10018 ft 136 kts 321°
2026-04-21 09:34 36.23442 23.49454 10010 ft 136 kts 321°
2026-04-21 09:35 36.24192 23.48728 9990 ft 136 kts 321°
2026-04-21 09:35 36.24939 23.48005 9983 ft 136 kts 321°
2026-04-21 09:35 36.25699 23.47270 9989 ft 136 kts 321°
2026-04-21 09:35 36.26445 23.46547 9986 ft 137 kts 321°
2026-04-21 09:36 36.27204 23.45812 9982 ft 137 kts 321°
2026-04-21 09:36 36.27949 23.45089 9984 ft 137 kts 321°
2026-04-21 09:36 36.28698 23.44364 9992 ft 136 kts 321°
2026-04-21 09:36 36.29458 23.43627 9997 ft 136 kts 321°
2026-04-21 09:37 36.30206 23.42901 9993 ft 137 kts 321°
2026-04-21 09:37 36.30953 23.42176 10003 ft 136 kts 321°
2026-04-21 09:37 36.31702 23.41449 10006 ft 136 kts 321°
2026-04-21 09:37 36.32454 23.40720 9997 ft 136 kts 321°
2026-04-21 09:38 36.33206 23.39990 9986 ft 136 kts 321°
2026-04-21 09:38 36.33947 23.39271 9974 ft 136 kts 321°
2026-04-21 09:38 36.34698 23.38541 9958 ft 136 kts 321°
2026-04-21 09:38 36.35453 23.37809 9979 ft 136 kts 321°
2026-04-21 09:39 36.36198 23.37086 9994 ft 136 kts 321°
2026-04-21 09:39 36.36955 23.36349 9998 ft 137 kts 321°
2026-04-21 09:39 36.37704 23.35621 10004 ft 137 kts 321°
2026-04-21 09:39 36.38460 23.34885 10008 ft 137 kts 320°
2026-04-21 09:40 36.39209 23.34158 9993 ft 137 kts 321°
2026-04-21 09:40 36.39955 23.33434 9987 ft 136 kts 321°
2026-04-21 09:40 36.40702 23.32711 9989 ft 135 kts 320°
2026-04-21 09:40 36.41454 23.31982 9978 ft 136 kts 320°
2026-04-21 09:41 36.42203 23.31254 9968 ft 135 kts 320°
2026-04-21 09:41 36.42952 23.30526 9979 ft 135 kts 320°
2026-04-21 09:41 36.43689 23.29808 9982 ft 136 kts 320°
2026-04-21 09:41 36.44443 23.29074 9984 ft 136 kts 320°
2026-04-21 09:42 36.45185 23.28351 9991 ft 136 kts 320°
2026-04-21 09:42 36.45935 23.27620 9983 ft 136 kts 320°
2026-04-21 09:42 36.46686 23.26888 9976 ft 136 kts 320°
2026-04-21 09:42 36.47435 23.26158 9980 ft 136 kts 320°
2026-04-21 09:43 36.48170 23.25440 9987 ft 135 kts 320°
2026-04-21 09:43 36.48923 23.24705 9980 ft 135 kts 320°
2026-04-21 09:43 36.49667 23.23980 9972 ft 136 kts 320°
2026-04-21 09:43 36.50409 23.23256 9971 ft 136 kts 320°
2026-04-21 09:44 36.51152 23.22530 9976 ft 136 kts 320°
2026-04-21 09:44 36.51901 23.21798 9978 ft 136 kts 320°
2026-04-21 09:44 36.52647 23.21069 9975 ft 136 kts 320°
2026-04-21 09:44 36.53389 23.20343 9982 ft 136 kts 320°
2026-04-21 09:45 36.54134 23.19616 9985 ft 136 kts 320°
2026-04-21 09:45 36.54884 23.18883 9984 ft 136 kts 320°
2026-04-21 09:45 36.55629 23.18154 9972 ft 136 kts 320°
2026-04-21 09:45 36.56374 23.17425 9967 ft 136 kts 320°
2026-04-21 09:46 36.57127 23.16687 9963 ft 136 kts 320°
2026-04-21 09:46 36.57872 23.15958 9954 ft 136 kts 320°
2026-04-21 09:46 36.58621 23.15225 9964 ft 136 kts 320°
2026-04-21 09:46 36.59199 23.14660 9982 ft 135 kts 320°
2026-04-21 09:47 36.59715 23.14155 9988 ft 135 kts 320°
2026-04-21 09:47 36.60393 23.13491 9985 ft 135 kts 320°
2026-04-21 09:47 36.61504 23.12402 9981 ft 135 kts 320°
2026-04-21 09:47 36.62248 23.11672 9973 ft 135 kts 320°
2026-04-21 09:48 36.62989 23.10947 9968 ft 136 kts 320°
2026-04-21 09:48 36.63732 23.10217 9957 ft 136 kts 320°
2026-04-21 09:48 36.64482 23.09482 9947 ft 136 kts 320°
2026-04-21 09:48 36.65218 23.08760 9959 ft 136 kts 320°
2026-04-21 09:49 36.65969 23.08023 9967 ft 136 kts 320°
2026-04-21 09:49 36.66714 23.07292 9980 ft 137 kts 320°
2026-04-21 09:49 36.67466 23.06553 9988 ft 137 kts 320°
2026-04-21 09:49 36.68216 23.05815 9979 ft 137 kts 320°
2026-04-21 09:50 36.68963 23.05080 9980 ft 136 kts 320°
2026-04-21 09:50 36.69459 23.04592 9982 ft 136 kts 320°
2026-04-21 09:50 36.71185 23.02898 9966 ft 135 kts 320°
2026-04-21 09:51 36.71934 23.02162 9970 ft 135 kts 320°
2026-04-21 09:51 36.72678 23.01430 9975 ft 135 kts 320°
2026-04-21 09:51 36.73407 23.00713 9974 ft 135 kts 320°
2026-04-21 09:51 36.74151 22.99981 9966 ft 135 kts 320°
2026-04-21 09:52 36.74896 22.99247 9962 ft 136 kts 320°
2026-04-21 09:52 36.75637 22.98517 9963 ft 136 kts 320°
2026-04-21 09:52 36.76385 22.97781 9979 ft 136 kts 320°
2026-04-21 09:52 36.77127 22.97047 9986 ft 136 kts 320°
2026-04-21 09:53 36.77874 22.96311 9992 ft 136 kts 320°
2026-04-21 09:53 36.78621 22.95574 10006 ft 135 kts 320°
2026-04-21 09:53 36.79362 22.94843 9986 ft 136 kts 320°
2026-04-21 09:53 36.80112 22.94104 9983 ft 135 kts 320°
2026-04-21 09:54 36.80851 22.93376 9978 ft 135 kts 320°
2026-04-21 09:54 36.81596 22.92641 9969 ft 136 kts 320°
2026-04-21 09:54 36.82340 22.91907 9966 ft 135 kts 320°
2026-04-21 09:54 36.83074 22.91184 9965 ft 135 kts 320°
2026-04-21 09:55 36.83817 22.90451 9973 ft 135 kts 320°
2026-04-21 09:55 36.84554 22.89723 9982 ft 135 kts 320°
2026-04-21 09:55 36.85293 22.88993 10002 ft 134 kts 320°
2026-04-21 09:55 36.86033 22.88261 9997 ft 135 kts 320°
2026-04-21 09:56 36.86769 22.87532 9983 ft 135 kts 320°
2026-04-21 09:56 36.87513 22.86796 9969 ft 135 kts 320°
2026-04-21 09:56 36.88246 22.86072 9972 ft 135 kts 320°
2026-04-21 09:56 36.88991 22.85334 9967 ft 135 kts 320°
2026-04-21 09:57 36.89733 22.84600 9969 ft 136 kts 320°
2026-04-21 09:57 36.90480 22.83860 9966 ft 136 kts 320°
2026-04-21 09:57 36.91217 22.83130 9964 ft 136 kts 320°
2026-04-21 09:57 36.91957 22.82398 9961 ft 136 kts 320°
2026-04-21 09:58 36.92704 22.81658 9970 ft 136 kts 320°
2026-04-21 09:58 36.93449 22.80920 9967 ft 137 kts 320°
2026-04-21 09:58 36.94193 22.80184 9986 ft 136 kts 320°
2026-04-21 09:58 36.94940 22.79444 9991 ft 135 kts 320°
2026-04-21 09:59 36.95682 22.78709 9996 ft 135 kts 320°
2026-04-21 09:59 36.96415 22.77983 9990 ft 135 kts 320°
2026-04-21 09:59 36.97162 22.77241 9986 ft 135 kts 320°
2026-04-21 09:59 36.97900 22.76508 9987 ft 135 kts 320°
2026-04-21 10:00 36.98637 22.75776 9982 ft 135 kts 320°
2026-04-21 10:00 36.99377 22.75042 9991 ft 135 kts 320°
2026-04-21 10:00 37.00114 22.74310 9989 ft 135 kts 320°
2026-04-21 10:00 37.00863 22.73565 9977 ft 136 kts 320°
2026-04-21 10:01 37.01597 22.72835 9985 ft 136 kts 320°
2026-04-21 10:01 37.02345 22.72091 9988 ft 136 kts 320°
2026-04-21 10:01 37.03093 22.71348 9987 ft 136 kts 320°
2026-04-21 10:01 37.03843 22.70603 9994 ft 136 kts 320°
2026-04-21 10:02 37.05337 22.69118 9988 ft 137 kts 320°
2026-04-21 10:02 37.06086 22.68373 9996 ft 137 kts 320°
2026-04-21 10:02 37.06832 22.67631 10008 ft 136 kts 320°
2026-04-21 10:03 37.07576 22.66889 10000 ft 136 kts 320°
2026-04-21 10:03 37.08324 22.66146 10000 ft 135 kts 320°
2026-04-21 10:03 37.09064 22.65408 9988 ft 136 kts 320°
2026-04-21 10:03 37.09803 22.64672 9989 ft 136 kts 320°
2026-04-21 10:04 37.10547 22.63928 9994 ft 136 kts 320°
2026-04-21 10:04 37.11285 22.63190 10004 ft 135 kts 320°
2026-04-21 10:04 37.12024 22.62449 9997 ft 135 kts 320°
2026-04-21 10:04 37.12761 22.61712 9995 ft 136 kts 320°
2026-04-21 10:05 37.13509 22.60963 9994 ft 137 kts 320°
2026-04-21 10:05 37.14257 22.60216 9996 ft 137 kts 320°
2026-04-21 10:05 37.15005 22.59469 10006 ft 137 kts 320°
2026-04-21 10:05 37.15751 22.58723 10003 ft 137 kts 320°
2026-04-21 10:06 37.16490 22.57985 10004 ft 137 kts 320°
2026-04-21 10:06 37.17240 22.57235 10005 ft 137 kts 320°
2026-04-21 10:06 37.17986 22.56491 10000 ft 137 kts 320°
2026-04-21 10:06 37.18742 22.55735 10002 ft 137 kts 320°
2026-04-21 10:07 37.19474 22.55004 10005 ft 136 kts 320°
2026-04-21 10:07 37.20220 22.54258 10011 ft 135 kts 320°
2026-04-21 10:07 37.20958 22.53519 9997 ft 136 kts 320°
2026-04-21 10:07 37.21698 22.52780 9993 ft 136 kts 320°
2026-04-21 10:08 37.22450 22.52026 10000 ft 136 kts 320°
2026-04-21 10:08 37.23194 22.51282 10009 ft 136 kts 319°
2026-04-21 10:08 37.23932 22.50542 10003 ft 137 kts 319°
2026-04-21 10:08 37.24684 22.49789 10005 ft 137 kts 319°
2026-04-21 10:09 37.25418 22.49053 10009 ft 136 kts 320°
2026-04-21 10:09 37.26165 22.48305 10007 ft 136 kts 320°
2026-04-21 10:09 37.26914 22.47553 10002 ft 136 kts 320°
2026-04-21 10:09 37.27655 22.46810 9999 ft 137 kts 320°
2026-04-21 10:10 37.28395 22.46067 10000 ft 136 kts 320°
2026-04-21 10:10 37.29144 22.45315 10004 ft 136 kts 320°
2026-04-21 10:10 37.29882 22.44577 10006 ft 136 kts 320°
2026-04-21 10:10 37.30624 22.43833 10002 ft 137 kts 320°
2026-04-21 10:11 37.31379 22.43075 10008 ft 137 kts 320°
2026-04-21 10:11 37.32120 22.42332 10011 ft 136 kts 319°
2026-04-21 10:11 37.32862 22.41586 10002 ft 137 kts 319°
2026-04-21 10:11 37.33606 22.40839 10011 ft 136 kts 319°
2026-04-21 10:12 37.34345 22.40096 10014 ft 136 kts 319°
2026-04-21 10:12 37.35091 22.39346 10010 ft 136 kts 319°
2026-04-21 10:12 37.35834 22.38598 10012 ft 136 kts 319°
2026-04-21 10:12 37.36574 22.37853 10011 ft 136 kts 320°
2026-04-21 10:13 37.37312 22.37110 10001 ft 136 kts 320°
2026-04-21 10:13 37.38058 22.36360 10008 ft 136 kts 320°
2026-04-21 10:13 37.38805 22.35609 10010 ft 136 kts 319°
2026-04-21 10:13 37.39547 22.34863 10007 ft 136 kts 319°
2026-04-21 10:14 37.40286 22.34112 10008 ft 136 kts 316°
2026-04-21 10:14 37.40983 22.33294 10015 ft 136 kts 315°
2026-04-21 10:14 37.41672 22.32481 10008 ft 136 kts 315°
2026-04-21 10:14 37.42366 22.31662 10010 ft 136 kts 315°
2026-04-21 10:15 37.43070 22.30829 10008 ft 137 kts 315°
2026-04-21 10:15 37.43759 22.30011 10007 ft 137 kts 315°
2026-04-21 10:15 37.44455 22.29186 10015 ft 136 kts 314°
2026-04-21 10:15 37.45145 22.28365 10009 ft 136 kts 314°
2026-04-21 10:16 37.45842 22.27536 10006 ft 137 kts 314°
2026-04-21 10:16 37.46542 22.26704 10013 ft 136 kts 314°
2026-04-21 10:16 37.47223 22.25893 10010 ft 136 kts 314°
2026-04-21 10:16 37.47913 22.25070 10003 ft 136 kts 314°
2026-04-21 10:17 37.48607 22.24244 10009 ft 136 kts 314°
2026-04-21 10:17 37.49294 22.23424 10027 ft 136 kts 314°
2026-04-21 10:17 37.49985 22.22599 10017 ft 136 kts 315°
2026-04-21 10:17 37.50670 22.21783 10012 ft 136 kts 315°
2026-04-21 10:18 37.51370 22.20948 10016 ft 136 kts 315°
2026-04-21 10:18 37.52056 22.20129 10006 ft 136 kts 314°
2026-04-21 10:18 37.52750 22.19301 10001 ft 137 kts 314°
2026-04-21 10:18 37.53445 22.18471 10008 ft 137 kts 314°
2026-04-21 10:19 37.54129 22.17654 10022 ft 137 kts 314°
2026-04-21 10:19 37.54819 22.16830 10029 ft 136 kts 314°
2026-04-21 10:19 37.55514 22.15998 10026 ft 137 kts 314°
2026-04-21 10:19 37.56204 22.15174 10016 ft 136 kts 314°
2026-04-21 10:20 37.56886 22.14358 10014 ft 136 kts 314°
2026-04-21 10:20 37.57576 22.13532 10003 ft 136 kts 314°
2026-04-21 10:20 37.58268 22.12706 10012 ft 136 kts 314°
2026-04-21 10:20 37.58949 22.11891 10013 ft 135 kts 314°
2026-04-21 10:21 37.59636 22.11069 10006 ft 135 kts 314°
2026-04-21 10:21 37.60325 22.10244 10012 ft 136 kts 314°
2026-04-21 10:21 37.61006 22.09427 10008 ft 136 kts 314°
2026-04-21 10:21 37.61695 22.08601 10020 ft 136 kts 314°
2026-04-21 10:22 37.62387 22.07771 10006 ft 137 kts 315°
2026-04-21 10:22 37.63083 22.06937 10014 ft 137 kts 314°
2026-04-21 10:22 37.63784 22.06096 10027 ft 137 kts 315°
2026-04-21 10:22 37.64473 22.05271 10023 ft 137 kts 314°
2026-04-21 10:23 37.65169 22.04436 10028 ft 137 kts 314°
2026-04-21 10:23 37.65858 22.03610 10022 ft 137 kts 314°
2026-04-21 10:23 37.66548 22.02780 10015 ft 137 kts 314°
2026-04-21 10:23 37.67247 22.01941 10022 ft 137 kts 314°
2026-04-21 10:24 37.67932 22.01119 10018 ft 137 kts 314°
2026-04-21 10:24 37.68628 22.00282 10010 ft 137 kts 314°
2026-04-21 10:24 37.69321 21.99449 10016 ft 137 kts 314°
2026-04-21 10:24 37.70012 21.98620 10024 ft 136 kts 314°
2026-04-21 10:25 37.70694 21.97801 10029 ft 136 kts 314°
2026-04-21 10:25 37.71376 21.96980 10026 ft 136 kts 314°
2026-04-21 10:25 37.72071 21.96144 10023 ft 136 kts 314°
2026-04-21 10:25 37.72759 21.95315 10026 ft 136 kts 314°
2026-04-21 10:26 37.73452 21.94480 10031 ft 137 kts 314°
2026-04-21 10:26 37.74144 21.93647 10035 ft 137 kts 314°
2026-04-21 10:26 37.74838 21.92811 10038 ft 137 kts 314°
2026-04-21 10:26 37.75538 21.91970 10043 ft 137 kts 314°
2026-04-21 10:27 37.76223 21.91144 10040 ft 137 kts 314°
2026-04-21 10:27 37.76910 21.90316 10036 ft 137 kts 314°
2026-04-21 10:27 37.77603 21.89480 10024 ft 137 kts 314°
2026-04-21 10:27 37.78299 21.88641 10028 ft 138 kts 314°
2026-04-21 10:28 37.78994 21.87803 10034 ft 137 kts 314°
2026-04-21 10:28 37.79694 21.86958 10031 ft 137 kts 314°
2026-04-21 10:28 37.80380 21.86131 10036 ft 137 kts 314°
2026-04-21 10:28 37.81071 21.85298 10034 ft 137 kts 314°
2026-04-21 10:29 37.81762 21.84463 10025 ft 137 kts 314°
2026-04-21 10:29 37.82454 21.83628 10021 ft 137 kts 314°
2026-04-21 10:29 37.83136 21.82803 10014 ft 137 kts 314°
2026-04-21 10:29 37.83828 21.81965 10010 ft 137 kts 314°
2026-04-21 10:30 37.84519 21.81130 10016 ft 137 kts 314°
2026-04-21 10:30 37.85216 21.80286 10007 ft 137 kts 314°
2026-04-21 10:30 37.85901 21.79458 10002 ft 138 kts 314°
2026-04-21 10:30 37.86600 21.78614 10016 ft 137 kts 314°
2026-04-21 10:31 37.87288 21.77782 10021 ft 138 kts 314°
2026-04-21 10:31 37.87981 21.76942 10018 ft 138 kts 314°
2026-04-21 10:31 37.88678 21.76098 10004 ft 138 kts 314°
2026-04-21 10:31 37.89370 21.75260 10002 ft 137 kts 314°
2026-04-21 10:32 37.90064 21.74419 9996 ft 138 kts 314°
2026-04-21 10:32 37.90770 21.73564 10002 ft 138 kts 314°
2026-04-21 10:32 37.91457 21.72731 10012 ft 138 kts 314°
2026-04-21 10:32 37.92153 21.71888 10031 ft 138 kts 314°
2026-04-21 10:33 37.92847 21.71046 10023 ft 138 kts 314°
2026-04-21 10:33 37.93550 21.70195 10018 ft 138 kts 314°
2026-04-21 10:33 37.94237 21.69360 10001 ft 137 kts 314°
2026-04-21 10:33 37.94933 21.68514 9995 ft 137 kts 314°
2026-04-21 10:34 37.95620 21.67679 10008 ft 137 kts 314°
2026-04-21 10:34 37.96309 21.66841 10017 ft 138 kts 314°
2026-04-21 10:34 37.96998 21.66004 10012 ft 137 kts 314°
2026-04-21 10:34 37.97691 21.65163 10012 ft 137 kts 314°
2026-04-21 10:35 37.98387 21.64318 10013 ft 138 kts 314°
2026-04-21 10:35 37.99086 21.63467 10021 ft 138 kts 314°
2026-04-21 10:35 37.99776 21.62628 10035 ft 137 kts 314°
2026-04-21 10:35 38.00465 21.61790 10026 ft 138 kts 314°
2026-04-21 10:36 38.01156 21.60949 10017 ft 138 kts 314°
2026-04-21 10:36 38.01857 21.60096 10017 ft 138 kts 314°
2026-04-21 10:36 38.02542 21.59263 10015 ft 137 kts 314°
2026-04-21 10:36 38.03236 21.58418 10016 ft 137 kts 314°
2026-04-21 10:37 38.03921 21.57585 10014 ft 137 kts 314°
2026-04-21 10:37 38.04613 21.56741 10010 ft 137 kts 314°
2026-04-21 10:37 38.05297 21.55907 10008 ft 137 kts 314°
2026-04-21 10:37 38.05987 21.55065 10004 ft 137 kts 314°
2026-04-21 10:38 38.06678 21.54222 10012 ft 137 kts 314°
2026-04-21 10:38 38.07369 21.53378 10009 ft 138 kts 314°
2026-04-21 10:38 38.08059 21.52536 10012 ft 138 kts 314°
2026-04-21 10:38 38.08752 21.51691 10008 ft 138 kts 314°
2026-04-21 10:39 38.09439 21.50852 10017 ft 137 kts 314°
2026-04-21 10:39 38.10132 21.50005 10012 ft 138 kts 314°
2026-04-21 10:39 38.10819 21.49164 10016 ft 137 kts 314°
2026-04-21 10:39 38.11506 21.48321 10015 ft 137 kts 314°
2026-04-21 10:40 38.12193 21.47478 10011 ft 137 kts 314°
2026-04-21 10:40 38.12891 21.46623 10002 ft 138 kts 314°
2026-04-21 10:40 38.13578 21.45782 10005 ft 137 kts 314°
2026-04-21 10:40 38.14268 21.44938 10011 ft 137 kts 314°
2026-04-21 10:41 38.14953 21.44099 10006 ft 137 kts 314°
2026-04-21 10:41 38.15608 21.43210 9976 ft 137 kts 296°
2026-04-21 10:41 38.15726 21.42028 10003 ft 136 kts 271°
2026-04-21 10:41 38.15705 21.40834 10011 ft 137 kts 271°
2026-04-21 10:42 38.15674 21.39613 10018 ft 137 kts 271°
2026-04-21 10:42 38.15638 21.38411 10010 ft 137 kts 270°
2026-04-21 10:42 38.15596 21.37193 10006 ft 138 kts 270°
2026-04-21 10:42 38.15548 21.35967 10013 ft 137 kts 270°
2026-04-21 10:43 38.15499 21.34763 10006 ft 138 kts 269°
2026-04-21 10:43 38.15447 21.33535 10005 ft 139 kts 269°
2026-04-21 10:43 38.15392 21.32313 10016 ft 138 kts 269°
2026-04-21 10:43 38.15338 21.31103 10013 ft 138 kts 269°
2026-04-21 10:44 38.15282 21.29877 10008 ft 137 kts 269°
2026-04-21 10:44 38.15226 21.28667 10001 ft 138 kts 269°
2026-04-21 10:44 38.15171 21.27457 10005 ft 137 kts 269°
2026-04-21 10:44 38.15114 21.26238 10005 ft 137 kts 269°
2026-04-21 10:45 38.15058 21.25040 10001 ft 137 kts 269°
2026-04-21 10:45 38.15001 21.23813 9998 ft 137 kts 269°
2026-04-21 10:45 38.14943 21.22608 10006 ft 137 kts 269°
2026-04-21 10:45 38.14886 21.21398 10006 ft 138 kts 269°
2026-04-21 10:46 38.14828 21.20191 10008 ft 138 kts 269°
2026-04-21 10:46 38.14770 21.18973 10004 ft 138 kts 269°
2026-04-21 10:46 38.14711 21.17756 10012 ft 137 kts 269°
2026-04-21 10:46 38.14653 21.16528 10007 ft 138 kts 269°
2026-04-21 10:47 38.14594 21.15310 10005 ft 138 kts 269°
2026-04-21 10:47 38.14535 21.14104 10013 ft 138 kts 269°
2026-04-21 10:47 38.14476 21.12872 10010 ft 138 kts 269°
2026-04-21 10:47 38.14418 21.11660 10009 ft 138 kts 269°
2026-04-21 10:48 38.14360 21.10447 10025 ft 138 kts 269°
2026-04-21 10:48 38.14301 21.09223 10044 ft 138 kts 269°
2026-04-21 10:48 38.14241 21.08000 10026 ft 138 kts 269°
2026-04-21 10:48 38.14183 21.06790 10033 ft 137 kts 269°
2026-04-21 10:49 38.14124 21.05576 10025 ft 137 kts 269°
2026-04-21 10:49 38.14064 21.04362 10011 ft 137 kts 269°
2026-04-21 10:49 38.14005 21.03146 10016 ft 138 kts 269°
2026-04-21 10:49 38.13945 21.01938 10016 ft 137 kts 269°
2026-04-21 10:50 38.13884 21.00718 10001 ft 138 kts 269°
2026-04-21 10:50 38.13824 20.99493 10007 ft 138 kts 269°
2026-04-21 10:50 38.13765 20.98289 10021 ft 138 kts 268°
2026-04-21 10:50 38.13704 20.97059 10023 ft 138 kts 268°
2026-04-21 10:51 38.13644 20.95858 10022 ft 138 kts 268°
2026-04-21 10:51 38.13582 20.94629 10033 ft 137 kts 268°
2026-04-21 10:51 38.13522 20.93426 10016 ft 138 kts 268°
2026-04-21 10:51 38.13460 20.92206 10009 ft 138 kts 268°
2026-04-21 10:52 38.13399 20.90984 10008 ft 139 kts 268°
2026-04-21 10:52 38.13337 20.89758 10009 ft 138 kts 269°
2026-04-21 10:52 38.13277 20.88551 10007 ft 138 kts 269°
2026-04-21 10:52 38.13215 20.87344 10011 ft 138 kts 269°
2026-04-21 10:53 38.13153 20.86110 10010 ft 138 kts 269°
2026-04-21 10:53 38.13091 20.84889 10005 ft 139 kts 269°
2026-04-21 10:53 38.13030 20.83667 10005 ft 139 kts 268°
2026-04-21 10:53 38.12968 20.82453 10008 ft 138 kts 268°
2026-04-21 10:54 38.12906 20.81240 10005 ft 137 kts 268°
2026-04-21 10:54 38.12844 20.80029 10001 ft 138 kts 268°
2026-04-21 10:54 38.12781 20.78808 10000 ft 138 kts 268°
2026-04-21 10:54 38.12719 20.77585 9918 ft 138 kts 266°
2026-04-21 10:55 38.12653 20.76363 9786 ft 139 kts 266°
2026-04-21 10:55 38.12586 20.75123 9661 ft 139 kts 266°
2026-04-21 10:55 38.12522 20.73903 9536 ft 139 kts 266°
2026-04-21 10:55 38.12458 20.72681 9406 ft 138 kts 266°
2026-04-21 10:56 38.12394 20.71456 9274 ft 138 kts 266°
2026-04-21 10:56 38.12331 20.70247 9136 ft 138 kts 266°
2026-04-21 10:56 38.12261 20.69033 9007 ft 138 kts 267°
2026-04-21 10:56 38.12204 20.67813 8967 ft 137 kts 268°
2026-04-21 10:57 38.12145 20.66611 8979 ft 137 kts 268°
2026-04-21 10:57 38.12083 20.65399 8997 ft 137 kts 268°
2026-04-21 10:57 38.12020 20.64183 9021 ft 137 kts 268°
2026-04-21 10:57 38.11957 20.62974 9032 ft 137 kts 268°
2026-04-21 10:58 38.11894 20.61769 9028 ft 137 kts 268°
2026-04-21 10:58 38.11830 20.60554 9036 ft 137 kts 268°
2026-04-21 10:58 38.11766 20.59339 9031 ft 137 kts 268°
2026-04-21 10:58 38.11702 20.58136 9026 ft 137 kts 268°
2026-04-21 10:59 38.11638 20.56921 9009 ft 137 kts 267°
2026-04-21 10:59 38.11573 20.55714 8878 ft 137 kts 266°
2026-04-21 10:59 38.11504 20.54494 8712 ft 137 kts 265°
2026-04-21 10:59 38.11436 20.53291 8530 ft 136 kts 265°
2026-04-21 11:00 38.11371 20.52096 8385 ft 133 kts 265°
2026-04-21 11:00 38.11308 20.50946 8237 ft 127 kts 265°
2026-04-21 11:00 38.11475 20.49871 8077 ft 121 kts 285°
2026-04-21 11:00 38.11736 20.48881 7923 ft 115 kts 285°
2026-04-21 11:01 38.11979 20.47921 7718 ft 114 kts 292°
2026-04-21 11:01 38.12250 20.46965 7518 ft 115 kts 292°
2026-04-21 11:01 38.12519 20.46018 7342 ft 114 kts 292°
2026-04-21 11:02 38.13046 20.44129 6987 ft 113 kts 292°
2026-04-21 11:02 38.13310 20.43178 6793 ft 114 kts 292°
2026-04-21 11:02 38.13574 20.42226 6609 ft 113 kts 292°
2026-04-21 11:02 38.13834 20.41287 6431 ft 113 kts 292°
2026-04-21 11:03 38.14093 20.40351 6257 ft 112 kts 292°
2026-04-21 11:03 38.14354 20.39405 6065 ft 112 kts 292°
2026-04-21 11:03 38.14612 20.38472 5877 ft 113 kts 292°
2026-04-21 11:03 38.14870 20.37537 5690 ft 113 kts 292°
2026-04-21 11:04 38.15129 20.36599 5508 ft 113 kts 292°
2026-04-21 11:04 38.15391 20.35652 5328 ft 112 kts 292°
2026-04-21 11:04 38.15646 20.34728 5147 ft 112 kts 291°
2026-04-21 11:04 38.15904 20.33792 4974 ft 111 kts 291°
2026-04-21 11:05 38.16160 20.32861 4780 ft 112 kts 290°
2026-04-21 11:05 38.16420 20.31918 4597 ft 112 kts 290°
2026-04-21 11:05 38.16675 20.30992 4413 ft 112 kts 290°
2026-04-21 11:05 38.16931 20.30062 4234 ft 112 kts 290°
2026-04-21 11:06 38.17187 20.29135 4060 ft 111 kts 290°
2026-04-21 11:06 38.17445 20.28188 3960 ft 112 kts 292°
2026-04-21 11:06 38.17706 20.27253 3917 ft 112 kts 291°
2026-04-21 11:06 38.17963 20.26328 3765 ft 111 kts 290°
2026-04-21 11:07 38.18264 20.25431 3590 ft 112 kts 305°
2026-04-21 11:07 38.18947 20.24901 3390 ft 119 kts 347°
2026-04-21 11:07 38.19768 20.25053 3207 ft 124 kts 24°
2026-04-21 11:07 38.20552 20.25521 3028 ft 125 kts 28°
2026-04-21 11:08 38.21324 20.26027 2862 ft 124 kts 30°
2026-04-21 11:08 38.22078 20.26563 2810 ft 124 kts 33°
2026-04-21 11:08 38.22812 20.27134 2852 ft 121 kts 36°
2026-04-21 11:08 38.23493 20.27710 2884 ft 114 kts 38°
2026-04-21 11:09 38.24136 20.28293 2857 ft 113 kts 40°
2026-04-21 11:09 38.24759 20.28900 2840 ft 113 kts 43°
2026-04-21 11:09 38.25379 20.29551 2844 ft 114 kts 45°
2026-04-21 11:09 38.25967 20.30216 2853 ft 114 kts 47°
2026-04-21 11:10 38.26544 20.30918 2863 ft 114 kts 50°
2026-04-21 11:10 38.27096 20.31641 2865 ft 114 kts 52°
2026-04-21 11:10 38.27631 20.32396 2865 ft 114 kts 54°
2026-04-21 11:10 38.28143 20.33173 2881 ft 112 kts 57°
2026-04-21 11:11 38.28617 20.33945 2899 ft 108 kts 58°
2026-04-21 11:11 38.29002 20.34716 2938 ft 97 kts 77°
2026-04-21 11:11 38.28984 20.35529 2852 ft 89 kts 121°
2026-04-21 11:11 38.28589 20.36083 2705 ft 85 kts 159°
2026-04-21 11:12 38.28081 20.36480 2578 ft 86 kts 160°
2026-04-21 11:12 38.27566 20.36885 2451 ft 85 kts 159°
2026-04-21 11:12 38.27070 20.37287 2365 ft 84 kts 160°
2026-04-21 11:12 38.26575 20.37689 2351 ft 85 kts 161°
2026-04-21 11:13 38.26076 20.38097 2376 ft 85 kts 161°
2026-04-21 11:13 38.25579 20.38506 2388 ft 84 kts 161°
2026-04-21 11:13 38.25089 20.38919 2342 ft 84 kts 158°
2026-04-21 11:13 38.24604 20.39332 2192 ft 84 kts 158°
2026-04-21 11:14 38.24113 20.39750 2160 ft 83 kts 160°
2026-04-21 11:14 38.23631 20.40155 2174 ft 84 kts 161°
2026-04-21 11:14 38.23130 20.40565 2185 ft 84 kts 161°
2026-04-21 11:14 38.22642 20.40970 2208 ft 84 kts 161°
2026-04-21 11:15 38.22149 20.41378 2211 ft 85 kts 160°
2026-04-21 11:15 38.21650 20.41793 2212 ft 84 kts 160°
2026-04-21 11:15 38.21156 20.42212 2199 ft 85 kts 157°
2026-04-21 11:15 38.20671 20.42639 2135 ft 83 kts 158°
2026-04-21 11:16 38.20195 20.43050 2033 ft 84 kts 159°
2026-04-21 11:16 38.19700 20.43467 1948 ft 84 kts 159°
2026-04-21 11:16 38.19208 20.43877 1856 ft 84 kts 159°
2026-04-21 11:16 38.18720 20.44281 1778 ft 84 kts 159°
2026-04-21 11:17 38.18231 20.44686 1700 ft 83 kts 159°
2026-04-21 11:17 38.17744 20.45091 1608 ft 83 kts 159°
2026-04-21 11:17 38.17260 20.45491 1524 ft 83 kts 159°
2026-04-21 11:17 38.16773 20.45892 1438 ft 83 kts 159°
2026-04-21 11:18 38.16289 20.46292 1353 ft 82 kts 158°
2026-04-21 11:18 38.15815 20.46683 1339 ft 81 kts 159°
2026-04-21 11:18 38.15344 20.47086 1195 ft 81 kts 146°
2026-04-21 11:18 38.14916 20.47543 1019 ft 81 kts 147°
2026-04-21 11:19 38.14475 20.47984 844 ft 80 kts 150°
2026-04-21 11:19 38.13991 20.48349 674 ft 79 kts 146°
2026-04-21 11:19 38.13539 20.48721 543 ft 76 kts 142°
2026-04-21 11:19 38.13130 20.49128 397 ft 70 kts 149°
2026-04-21 11:20 38.12738 20.49435 300 ft 63 kts 149°
2026-04-21 11:20 38.12390 20.49730 189 ft 55 kts 150°
2026-04-21 11:20 38.12096 20.49972 109 ft 46 kts 151°
2026-04-21 11:20 38.11866 20.50170 67 ft 32 kts 151°
2026-04-21 11:21 38.11737 20.50279 61 ft 11 kts 149°
2026-04-21 11:21 38.11709 20.50297 61 ft 1 kts 107°
2026-04-21 11:21 38.11727 20.50314 62 ft 4 kts 29°
2026-04-21 11:21 38.11770 20.50347 64 ft 8 kts 30°
2026-04-21 11:22 38.11822 20.50398 67 ft 10 kts 57°
2026-04-21 11:22 38.11848 20.50447 69 ft 5 kts 54°
2026-04-21 11:22 38.11855 20.50460 69 ft 0 kts 56°